OBJECT AH, 62640

Orbit data source: Space-Track

You're viewing an Uncataloged Satellite

Recently launched and/or uncataloged satellites may have evolving metadata. Metadata may include but not limited to: Owner, Maufacturer, Bus, Motor, and Mission.

OBJECT AH, 62640 is a satellite in SSO that was launched on Tue, 14 Jan 2025 UTC via an FALCON 9 launch vehicle from the Air Force Western Test Range (AFWTR). Unknown objects in Earth's orbit typically refer to objects detected orbiting the Earth but have not yet been identified or cataloged. These objects could be anything from previously untracked satellites, spent rocket stages, debris from satellite collisions, or even natural meteoroids temporarily captured by Earth's gravity.

Loading next visibility...
Identifier
62640, 2025-009AH
Orbit
SSO
Last TLE update
12 hours ago
Origin
Flag of TBDUZMA/URUGUS (TBD)
Manufacturer
URUGUS S.A.
Mission
Operational Commercial Imaging
Bus & Motor
NEWSAT V, Unknown motor
Mass
41.5 kg wet, 38.5 kg dry
Launch date (UTC)
2025-01-14 (6 months ago)
Launch vehicle
FALCON 9
Launch site
Air Force Western Test Range (AFWTR)
Object type
Unknown
Shape & HBR
Box, 0.813 m
Radar Cross Section
0.542 m², Medium (>0.1 m² and < 1m²)

Expand to show TLE details & history

TLE from 12 hours ago
0 OBJECT AH
1 62640U 25009AH  25191.50344949  .00004262  00000-0  19323-3 0  9995
2 62640  97.4261 271.4562 0003938  92.2122 267.9564 15.21365544 26831
Epoch: 2025-07-10T12:04Z
TLE epoch observation values (Epoch: 2025-07-10T12:04:58.035Z)
Latitude
-0.00013°
Longitude
161.54561°
Altitude
504.91 km
Speed
7.612 km/s
True Right ascension
18h 05m 49s
True Declination
0° 00' 00"
Sunlit
Object was in full shadow at epoch
Visualization orbit readout
Latitude
-27.74762°
Longitude
-21.873°
Altitude
513.428 km
Speed
7.605 km/s
Apparent Right ascension
03h 27m 42s
Apparent Declination
-41° 20' 00"
Sunlit
Object is in daylight
Visualization observer readout
Local Sidereal Time
12:18:43
Azimuth
251.97° W
Elevation
-54.562°
Doppler factor
1
Orbital elements
Apogee altitude
501.394 km
Perigee altitude
495.978 km
Semi-major axis
6,876.823 km
Eccentricity
0.00039
Inclination
97.4261°
RAAN
271.4562°
Arg. of periapsis
92.2122°
True anomaly
Unknown
Mean anomaly
267.9564°
Eccentric anomaly
Unknown
Mean motion
3.80594 °/min
Orbital period
94.59 mins
BSTAR
0.00019323
Loading maneuver chart data...
Loading SW <> Apogee altitude chart data...
Loading historical data...
Loading historical data...
Loading historical data...
Loading historical data...
Loading historical data...
Loading historical data...
Loading historical data...

OBJECT AH Visibility forecast

Observer location: undefined°, undefined°

Span
Click to sort rows by Start time (UTC) header in descending order
Start Az.
Max El. time (UTC)
Max El. Az.
Max El.
End time (UTC)
End Az.
6 mins2025-07-11 05:34:33.138Z179.599° S2025-07-11 05:37:33.138Z287.848° WNW41.152°2025-07-11 05:40:33.138Z340.793° N
5 mins2025-07-11 18:38:33.138Z349.293° N2025-07-11 18:40:33.138Z302.019° NW32.753°2025-07-11 18:43:33.138Z220.504° SW
|